SnugLite
1 43784U 18099AC 19185.78343678 -.00000164 00000-0 -96130-5 0 9990
2 43784 097.7408 257.4598 0013674 276.1819 083.7844 14.95136002031838
ITASat 1
1 43786U 18099AE 19185.78145601 -.00000243 00000-0 -16841-4 0 9996
2 43786 097.7462 257.6098 0013769 275.0779 084.8870 14.95141340031837
EAGLET 1
1 43790U 18099AJ 19185.79429975 .00000053 00000-0 99923-5 0 9991
2 43790 097.7450 257.7217 0012067 280.4874 079.4987 14.95514962031539
ESEO
1 43792U 18099AL 19185.79194339 -.00000093 00000-0 -31244-5 0 9994
2 43792 097.7430 257.6756 0011913 277.2753 082.7114 14.95507302031590
CSIM
1 43793U 18099AM 19185.91036967 -.00000055 00000-0 29978-6 0 9990
2 43793 097.7396 257.6959 0011532 274.1911 085.7992 14.95701535031586
Astrocast 0.1
1 43798U 18099AS 19185.76115273 .00000248 00000-0 27438-4 0 9996
2 43798 097.7442 257.7277 0010849 258.5212 101.4791 14.95737092031824
JO-97
1 43803U 18099AX 19185.89865707 .00000187 00000-0 22225-4 0 9992
2 43803 097.7422 257.6439 0013604 275.6080 084.3589 14.95275114031841
Suomi 100
1 43804U 18099AY 19185.89818339 .00000172 00000-0 20851-4 0 9999
2 43804 097.7420 257.6416 0013679 275.6975 084.2686 14.95274813031853
Al Farabi 2
1 43805U 18099AZ 19185.89296923 .00000495 00000-0 50134-4 0 9994
2 43805 097.7423 257.6515 0013663 275.6899 084.2763 14.95332342031853
PWSat 2
1 43814U 18099BJ 19185.90554314 .00011589 00000-0 93771-3 0 9996
2 43814 097.7834 258.7919 0005513 229.4864 130.5858 14.99909902031286
CHOMPTT
1 43855U 18104G 19185.67004298 .00000792 00000-0 32479-4 0 9996
2 43855 085.0387 045.8788 0015265 254.9305 105.0252 15.22391714030457
ISAT
1 43879U 18111D 19185.77863031 .00000059 00000-0 10446-4 0 9995
2 43879 097.7177 093.5536 0012737 337.8453 022.2216 14.95996251028348
UWE-4
1 43880U 18111E 19185.74775639 .00000436 00000-0 43745-4 0 9997
2 43880 097.7180 093.6173 0011694 338.3387 021.7338 14.96233097028347
Sparrow
1 43881U 18111F 19185.74201192 .00000259 00000-0 28088-4 0 9992
2 43881 097.7183 093.6343 0011874 336.7652 023.3031 14.96280360028340
Lume 1
1 43908U 18111AJ 19185.81742188 .00000767 00000-0 34083-4 0 9991
2 43908 097.2892 090.6301 0020131 297.1650 062.7535 15.24350394028902
FO-98
1 43933U 19003B 19185.93308220 .00000508 00000-0 25372-4 0 9992
2 43933 097.2807 242.9734 0019107 033.1908 091.0446 15.21642925025525
FO-99
1 43937U 19003F 19185.85253781 .00000871 00000-0 39033-4 0 9990
2 43937 97.2760 243.2474 0025172 19.0792 69.9458 15.23589313 25547
Delphini 1
1 44030U 98067PW 19185.65516993 .00006870 00000-0 10086-3 0 9998
2 44030 51.6384 271.1757 0004284 204.9154 155.1632 15.56765574 24036
MYSat 1
1 44045U 18092F 19185.73653968 .00001831 00000-0 64236-4 0 9996
2 44045 051.6432 293.1998 0012958 141.9527 218.2374 15.34981910021703
AstroCast 0.2
1 44083U 19018F 19185.72333275 .00000344 00000-0 18470-4 0 9999
2 44083 97.4677 245.5819 0012793 317.8315 42.1936 15.21385383 14352
AISTechSat 3
1 44103U 19018AB 19185.84464861 .00000597 00000-0 28667-4 0 9990
2 44103 097.4555 245.7093 0012860 337.4721 022.5949 15.22639079014384
AISat 1
1 44104U 19018AC 19185.75332568 .00000649 00000-0 23628-4 0 9999
2 44104 97.5087 247.3692 0059332 11.5347 348.7236 15.30481772 14463
OBJECT A
1 44339U 19036A 19185.05008421 .00001899 00000-0 40471-3 0 9992
2 44339 024.0007 149.6861 0010719 291.2152 068.7197 14.52653536001260
OBJECT B
1 44340U 19036B 19183.74426468 .00000266 00000-0 13073-4 0 9999
2 44340 023.9996 157.8827 0011398 276.3236 083.6033 14.52757897001070
OBJECT C
1 44341U 19036C 19185.94187043 .00000438 00000-0 54283-4 0 9996
2 44341 023.9973 144.0462 0011540 300.7389 059.1983 14.52836356001394
OBJECT D
1 44342U 19036D 19185.25408017 .00000234 00000-0 52516-5 0 9990
2 44342 023.9971 148.3529 0012244 290.4905 069.4272 14.53013512001291
OBJECT E
1 44343U 19036E 19185.94053254 .00000293 00000-0 19277-4 0 9997
2 44343 024.0001 144.0342 0012141 300.1561 059.7761 14.53037407001392
OBJECT H
1 44346U 19036H 19185.93177943 .00005578 00000-0 85344-4 0 9990
2 44346 028.5237 138.3629 0392688 207.6220 150.3003 14.95866231001443
OBJECT J
1 44347U 19036J 19185.92891243 .00017424 00000-0 28163-3 0 9994
2 44347 028.5293 138.3393 0389533 207.5335 150.4079 14.96412936001449
OBJECT K
1 44348U 19036K 19185.92811689 .00004523 00000-0 66935-4 0 9997
2 44348 028.5186 138.3273 0391488 207.2255 150.7301 14.96421766001440
